This is the latest recevied weather packets stored in our database for station/object N3FAA. If no packets are shown the sender has not sent any weather packets the latest 10 day(s).
| Time | Temp. | Humidity | Pressure | Rain* | Wind** | Luminosity | Snow |
|---|---|---|---|---|---|---|---|
| 1778124978 | 20° C | 46% | 1013.6 hPa | 0 mm | - | 0 W/m² | - |
| 1778124674 | 20° C | 47% | 1013.4 hPa | 0 mm | - | 0 W/m² | - |
| 1778124371 | 20° C | 47% | 1013.3 hPa | 0 mm | - | 0 W/m² | - |
| 1778124067 | 20° C | 46% | 1013.5 hPa | 0 mm | - | 0 W/m² | - |
| 1778123764 | 20.56° C | 45% | 1013.2 hPa | 0 mm | - | 0 W/m² | - |
| 1778123461 | 20.56° C | 44% | 1013.2 hPa | 0 mm | - | 0 W/m² | - |
| 1778123158 | 20.56° C | 44% | 1013 hPa | 0 mm | - | 0 W/m² | - |
| 1778122855 | 20.56° C | 43% | 1013.1 hPa | 0 mm | - | 0 W/m² | - |
| 1778122553 | 21.11° C | 43% | 1013 hPa | 0 mm | - | 0 W/m² | - |
| 1778122249 | 21.11° C | 43% | 1013.2 hPa | 0 mm | - | 0 W/m² | - |
| 1778121947 | 21.67° C | 42% | 1013.1 hPa | 0 mm | - | 1 W/m² | - |
| 1778121644 | 21.67° C | 42% | 1013.1 hPa | 0 mm | - | 3 W/m² | - |
| 1778121339 | 21.67° C | 42% | 1012.8 hPa | 0 mm | - | 7 W/m² | - |
| 1778121037 | 22.22° C | 41% | 1012.9 hPa | 0 mm | - | 10 W/m² | - |
| 1778120734 | 22.22° C | 41% | 1012.8 hPa | 0 mm | - | 13 W/m² | - |
| 1778120430 | 22.78° C | 40% | 1012.9 hPa | 0 mm | - | 18 W/m² | - |
| 1778120126 | 22.78° C | 40% | 1012.5 hPa | 0 mm | - | 23 W/m² | - |
| 1778119823 | 22.78° C | 41% | 1012.9 hPa | 0 mm | - | 28 W/m² | - |
| 1778119520 | 23.33° C | 40% | 1012.6 hPa | 0 mm | - | 32 W/m² | - |
| 1778119216 | 23.33° C | 40% | 1012.6 hPa | 0 mm | - | 37 W/m² | - |
| 1778118915 | 23.33° C | 39% | 1012.9 hPa | 0 mm | - | 42 W/m² | - |
| 1778118612 | 23.89° C | 38% | 1012.2 hPa | 0 mm | - | 59 W/m² | - |
| 1778118309 | 23.89° C | 37% | 1012.4 hPa | 0 mm | - | 64 W/m² | - |
| 1778118004 | 24.44° C | 37% | 1012.1 hPa | 0 mm | - | 91 W/m² | - |
| 1778117701 | 24.44° C | 37% | 1012.2 hPa | 0 mm | - | 106 W/m² | - |
* Rain latest hour (hover to see other rain measurements)
** Current wind speed in m/s (hover to see current wind gust speed)